Flag for Poland Weather past 2 weeks in Dąbrowa Górnicza, Poland

30 °F

Low clouds.

Feels Like: 24 °F
Forecast: 30 / 37 °F
Wind: 6 mph from South

Location: Katowice Airport

Current Time: Nov 28, 2015 at 7:59:52 AM

Latest Report: Nov 28, 2015 at 7:30 AM

Visibility: 4 mi

Pressure: 29.83 "Hg

Humidity: 86%

Dew point: 27 °F

Location of Dąbrowa GórniczaLocation

Historic Weather in Dąbrowa Górnicza — Graph


Dąbrowa Górnicza temperature yesterday

Maximum temperature yesterday: 34 °F (at 12:00 PM)
Minimum temperature yesterday: 19 °F (at 3:00 AM)
Average temperature yesterday: 28 °F

Past Weeks' High & Low Weather Summary

High55 °F (Nov 18, 8:00 AM)100% (Nov 13, 7:00 AM)30.30 "Hg (Nov 13, 7:00 AM)
Low19 °F (Nov 27, 3:00 AM)56% (Nov 25, 2:00 PM)29.36 "Hg (Nov 21, 12:00 AM)
Average40 °F86%29.86 "Hg
* Reported Nov 13 7:00 AM — Nov 28 7:00 AM, Dąbrowa Górnicza, Weather by CustomWeather, © 2015

Note: Actual official high and low records may vary slightly from our data, if they occured in-between our weather recording intervals... More about our weather records


Dąbrowa Górnicza weather history for previous 24 hours

Time TempWeatherWind HumidityBarometerVisibility
7:00 AM
Sat, Nov 28
30 °FOvercast.5 mph93%29.83 "Hg4 mi
6:30 AM30 °FIce fog.6 mph93%29.83 "Hg2 mi
6:00 AM30 °FIce fog.6 mph93%29.83 "Hg3 mi
5:30 AM30 °FIce fog.5 mph93%29.83 "Hg3 mi
5:00 AM30 °FIce fog.3 mph93%29.83 "Hg3 mi
4:30 AM30 °FIce fog.6 mph93%29.86 "Hg3 mi
4:00 AM30 °FIce fog.6 mph93%29.86 "Hg3 mi
3:30 AM30 °FIce fog.6 mph93%29.86 "Hg3 mi
3:00 AM30 °FIce fog.6 mph93%29.86 "Hg3 mi
2:30 AM30 °FLow clouds.3 mph93%29.89 "Hg4 mi
1:00 AM30 °FLow clouds.7 mph93%29.92 "Hg5 mi
12:00 AM32 °FLow clouds.8 mph87%29.95 "Hg5 mi
11:30 PM
Fri, Nov 27
32 °FLow clouds.7 mph87%29.95 "Hg5 mi
11:00 PM32 °FLow clouds.8 mph80%29.95 "Hg5 mi
10:30 PM30 °FLow clouds.7 mph86%29.95 "Hg5 mi
10:00 PM30 °FPassing clouds.6 mph93%29.98 "Hg4 mi
9:30 PM30 °FIce fog.5 mph93%29.98 "Hg3 mi
9:00 PM30 °FIce fog.5 mph93%29.98 "Hg3 mi
8:30 PM30 °FIce fog.5 mph86%30.01 "Hg3 mi
8:00 PM30 °FIce fog.5 mph86%30.01 "Hg3 mi
7:30 PM30 °FIce fog.7 mph86%30.01 "Hg3 mi
7:00 PM30 °FIce fog.8 mph86%30.01 "Hg3 mi
6:30 PM30 °FIce fog.8 mph86%30.01 "Hg3 mi
6:00 PM30 °FClear.6 mph86%30.04 "Hg4 mi
5:30 PM30 °FClear.6 mph86%30.04 "Hg5 mi
5:00 PM30 °FClear.7 mph86%30.04 "Hg5 mi
4:30 PM30 °FClear.6 mph80%30.04 "Hg5 mi
4:00 PM32 °FClear.7 mph75%30.04 "Hg5 mi
3:30 PM32 °FScattered clouds.7 mph80%30.04 "HgN/A
3:00 PM34 °FPartly sunny.8 mph70%30.07 "HgN/A
2:30 PM34 °FPartly sunny.7 mph75%30.07 "HgN/A
2:00 PM34 °FPartly sunny.7 mph75%30.07 "HgN/A
1:30 PM34 °FPartly sunny.6 mph81%30.07 "HgN/A
1:00 PM34 °FPartly sunny.7 mph81%30.07 "HgN/A
12:30 PM34 °FPartly sunny.7 mph81%30.09 "HgN/A
12:00 PM34 °FPassing clouds.6 mph87%30.09 "Hg6 mi
11:30 AM32 °FScattered clouds.7 mph93%30.09 "Hg6 mi
11:00 AM32 °FScattered clouds.7 mph93%30.09 "Hg4 mi
10:30 AM30 °FIce fog.1 mph100%30.09 "Hg3 mi
10:00 AM28 °FIce fog.1 mph100%30.12 "Hg3 mi
9:30 AM28 °FIce fog.2 mph93%30.12 "Hg2 mi
9:00 AM27 °FIce fog.1 mph93%30.12 "Hg2 mi
7:30 AM23 °FIce fog.3 mph93%30.09 "Hg3 mi
7:00 AM23 °FIce fog.2 mph93%30.09 "Hg3 mi
Weather by CustomWeather, © 2015

See weather overviewHow to use our weather pages